CAPE
447 659 871 1101 1116 638 274 331 312 114 66 15 5 56 92 77 156 393 162 155 116 214 556 933 1419 1420 1583 1446 1522 1611 1577 1700 1745 1170 1507 1575 1722 1750 1592 1956 1873 1914 1653 1519 1534 1482 1624 1441 1447
1260 1250 1570 2152 530 158 337 45 295 122 62 60 32 53 104 90 34 136 147 201 174 230 466 912 1351 947 1115 989 1192 1189 1479 1519 1594 1624 1573 1710 1817 1415 1446 1678 1741 1747 1450 1376 1356 1277 1184 1263 1389
1722 1246 2152 780 74 86 252 255 62 142 85 48 133 119 131 9 81 64 177 277 299 297 519 940 1296 1463 1341 1231 1321 1452 1527 1640 1621 1569 1591 1402 1412 1499 1802 1745 1515 1443 1508 1488 1473 1369 1254 1251 1223
1427 2364 1964 955 54 138 84 264 125 190 188 214 197 142 152 77 37 122 142 147 190 230 330 835 1222 1423 1099 739 1676 590 908 883 1010 1144 1181 1145 1662 1475 1695 1766 1735 1590 1498 1475 1501 1465 1343 1157 1201
1944 1628 744 119 51 53 162 214 158 251 301 87 106 147 67 83 46 115 159 139 240 361 567 601 1399 1255 844 962 1584 847 1683 1941 1673 1269 1316 1591 1562 1744 1713 1525 1354 1321 1266 1266 1328 1432 1388 1418 1505
1294 722 397 70 49 82 106 204 110 209 155 413 103 142 145 33 90 146 169 129 48 348 1050 661 963 419 287 1262 1510 869 1421 1691 1822 1824 1797 1829 1517 1204 1082 960 821 881 989 995 1002 1110 1207 1482 1617
932 279 111 60 73 97 207 129 178 227 171 287 73 91 38 45 35 149 182 489 224 700 637 762 10 500 1156 1400 1683 1957 1921 1248 1001 1088 1107 1100 956 991 1014 1104 1171 1462 1675 1561 1393 1572 1703 1853 2012
269 287 165 95 144 8 71 285 379 237 220 265 521 544 63 45 24 64 158 170 377 762 713 805 278 851 952 1677 1556 1210 1012 1116 1377 1424 1524 1715 1627 1785 1899 1989 1931 1954 2033 2024 2128 2231 2155 2321 2576
263 334 78 65 180 25 67 181 220 548 353 305 308 291 251 6 33 9 209 60 123 620 590 886 699 481 1075 802 584 613 797 1012 1264 1454 1448 1612 1941 2064 2372 2134 1805 1920 1837 1904 1415 2223 2476 2540 2849
216 143 51 53 50 72 84 225 299 498 507 472 382 228 26 0 1 20 223 53 242 302 261 743 45 25 346 48 750 877 1143 1672 1726 2030 2227 2083 1606 1652 1795 1774 2050 2087 2070 2319 2008 1826 2280 2561 1819
125 35 76 123 106 136 124 112 194 187 525 544 481 229 53 20 4 19 13 47 168 246 330 192 130 6 0 94 541 1393 1563 1761 1640 2030 2103 1830 2171 2059 2152 1484 2472 1986 2218 2601 2276 1956 1640 1907 1193
36 2 54 44 38 42 175 143 206 335 429 446 506 225 72 4 17 0 28 132 162 216 292 162 178 132 61 141 510 656 1379 1143 1352 1575 2286 2482 2341 1396 1898 1393 1649 2106 2096 1645 2985 2581 2649 2239 2104
67 32 50 89 149 55 47 76 149 453 593 470 510 203 81 0 0 2 16 177 126 252 260 51 57 206 793 1326 1170 1865 1783 1702 1092 2234 1816 1635 1547 1879 1261 1781 1379 2399 2171 1467 2333 2892 1839 1658 1655
16 77 105 215 252 326 158 170 325 649 480 656 521 262 103 20 0 114 4 150 168 315 70 10 45 941 1291 1820 1458 1319 2386 1378 1024 1189 1686 2001 2053 2389 2207 1300 1113 1079 1411 1746 1844 2467 1851 1795 1165
197 85 150 220 437 528 470 411 481 534 515 594 506 379 181 157 61 177 108 180 167 315 9 0 165 1043 1493 1712 1599 1497 1261 1009 946 1201 1621 1765 2037 2020 3526 2231 1546 1541 1905 1357 1412 1755 1208 818 641
340 228 148 153 385 466 410 339 421 382 553 544 467 459 213 244 447 539 399 141 108 296 11 2 581 1089 1363 1375 1447 1196 1153 903 917 812 1480 1501 1894 2028 3791 2317 1623 2961 3202 2262 1997 2172 2162 2518 2373
297 291 534 286 273 960 431 493 566 490 574 713 530 531 369 439 442 503 505 304 174 425 93 306 950 1020 1226 1292 1118 1520 1891 1291 914 880 997 1650 1834 1893 2623 2064 2297 3080 2374 2286 2346 2328 2955 2660 2625
296 198 123 161 508 250 553 593 933 651 533 621 646 533 537 507 337 430 511 385 0 465 364 652 1016 1276 1495 1309 1424 1341 1406 974 848 808 1216 1495 1681 1795 2435 2701 2664 3577 3203 2868 2888 3262 2908 3239 2363
141 205 226 9 162 175 340 428 1208 986 671 523 687 612 581 580 570 458 507 390 121 297 457 572 1084 1681 1650 1390 1219 1129 1071 878 767 660 754 1232 1417 1749 1827 2151 2489 2095 2508 3211 3260 3157 3285 2717 2750
71 232 216 190 119 61 87 328 431 1205 887 616 434 611 613 623 454 532 782 517 301 272 583 355 934 1563 1777 1192 1456 1002 973 706 594 620 834 1139 1343 1509 1409 2782 2804 3215 2582 2969 3169 3243 2771 3111 3188
58 113 145 178 116 246 89 126 92 918 1085 545 465 416 517 583 583 727 878 648 330 351 506 452 1105 1480 1583 1786 1148 1483 1298 1223 569 437 817 1594 1089 1402 1909 2445 2963 3075 3538 2362 2985 3495 3406 2656 1341
41 44 49 34 118 252 210 364 137 560 1161 813 375 346 405 516 702 825 863 703 517 380 299 605 1256 1521 1259 1562 1894 2412 900 621 383 544 1055 745 1175 1566 1765 2210 2532 2879 2780 3012 3501 3324 3169 2392 1335
11 49 80 34 114 198 313 265 111 712 1064 1017 443 304 281 330 583 805 835 909 838 572 398 356 1708 1681 1509 1734 1767 1130 1193 795 709 686 1720 1611 2151 2088 1826 2065 2557 2652 2816 2931 3543 3105 2839 2314 1258
0 50 84 56 139 159 118 150 201 683 782 1102 745 375 208 162 402 630 788 840 833 776 676 295 1657 2273 1805 1164 1036 1344 1455 1595 1015 1076 1072 1191 1242 1614 2223 2435 2671 2871 3129 3547 3222 2849 2461 2010 1121
0 79 116 119 150 132 121 122 123 82 301 621 936 666 328 50 164 544 757 786 823 851 751 493 1233 1959 1325 882 838 1129 1402 1593 1680 1851 1734 1636 1437 1358 3466 2871 3535 3184 3524 3426 3095 2213 1842 1191 525
0 64 103 194 238 218 253 172 122 46 232 338 854 834 663 144 35 373 685 789 783 679 634 518 1367 2154 1707 1583 2026 2117 2139 1230 1352 2100 1607 1413 1451 1526 2674 2742 2796 2998 2655 2937 2264 1774 1198 707 84
0 57 59 129 99 292 59 348 31 110 39 31 84 949 775 375 0 204 532 826 885 803 747 806 1453 2016 1771 1741 2123 2614 2321 2315 1788 3150 3215 2001 3009 1916 2197 2794 2773 2623 2936 2207 1709 1209 778 100 0
0 8 15 57 185 134 110 219 6 101 88 274 179 818 849 587 3 75 350 659 828 862 935 992 1085 1486 1720 1696 1856 1917 2084 2374 2505 2301 2500 2711 2279 2330 2803 2725 2982 2446 2342 1580 1241 925 310 0 0
0 3 9 77 61 75 88 411 184 228 163 81 328 846 851 640 92 21 251 522 670 755 856 966 1051 1296 1796 2535 2484 2751 2146 2313 2313 2219 2362 2588 2622 2797 3003 3111 2952 2468 1821 1227 909 484 1 0 0
0 0 7 72 129 81 88 241 71 151 46 148 527 950 742 497 122 36 139 377 565 702 803 925 1216 1479 2342 2970 3388 2431 2006 2320 2298 2586 2435 2508 2661 2952 3112 3353 2681 1962 1593 943 745 194 0 0 0
CIN
-209 -118 -51 -6 -1 -15 -9 -3 -2 -0 -8 -40 -36 -2 -10 -17 -1 -4 -0 -0 -0 -0 -0 -6 -0 -0 -0 -0 -0 -0 -0 -0 -0 -4 -0 -0 -0 -3 -0 -0 -0 -0 -0 -0 -0 -0 -0 -4 -5
-43 -16 -2 -21 -20 -43 -1 -31 -4 -19 -33 -32 -36 -27 -8 -20 -35 -6 -0 -6 -3 -1 -7 -0 -0 -0 -0 -0 -0 -0 -1 -1 -1 -1 -1 -1 -0 -0 -0 -0 -0 -0 -0 -0 -0 -2 -7 -13 -17
-81 -42 -1 -57 -66 -7 -5 -14 -28 -30 -35 -15 -5 -19 -16 -74 -20 -12 -1 -3 -5 -2 -1 -0 -2 -0 -1 -1 -0 -0 -0 -0 -1 -0 -0 -0 -0 -0 -0 -0 -0 -0 -0 -0 -0 -4 -15 -19 -24
-61 -0 -7 -69 -1 -4 -31 -0 -8 -6 -11 -7 -7 -10 -12 -26 -105 -19 -5 -2 -1 -1 -9 -1 -0 -1 -0 -6 -0 -12 -5 -6 -5 -3 -6 -8 -0 -2 -0 -0 -0 -0 -0 -0 -5 -5 -14 -22 -27
-3 -5 -41 -16 -4 -0 -5 -2 -4 -2 -0 -18 -13 -6 -43 -22 -46 -18 -5 -0 -11 -16 -0 -0 -0 -0 -5 -4 -0 -5 -0 -0 -0 -0 -0 -0 -1 -0 -0 -0 -1 -6 -10 -16 -10 -20 -16 -22 -25
-0 -16 -30 -17 -0 -2 -0 -1 -9 -5 -41 -1 -41 -30 -15 -57 -17 -2 -1 -1 -1 -5 -3 -0 -2 -21 -33 -2 -0 -7 -0 -0 -0 -0 -0 -0 -5 -19 -26 -23 -29 -32 -26 -22 -22 -26 -20 -18 -26
-1 -5 -9 -63 -0 -0 -7 -18 -0 -0 -8 -2 -74 -51 -67 -53 -51 -2 -45 -8 -7 -4 -1 -0 -12 -18 -2 -0 -0 -0 -0 -4 -19 -13 -18 -31 -45 -51 -37 -28 -29 -19 -20 -20 -26 -22 -20 -21 -17
-7 -0 -0 -1 -3 -32 -0 -0 -1 -5 -4 -0 -0 -0 -41 -50 -42 -19 -4 -15 -7 -3 -0 -3 -4 -0 -0 -0 -0 -8 -19 -25 -20 -21 -26 -33 -43 -46 -41 -28 -32 -21 -13 -14 -12 -14 -23 -27 -31
-26 -2 -12 -1 -61 -30 -0 -2 -0 -0 -1 -0 -0 -1 -14 -73 -37 -38 -4 -33 -33 -1 -4 -8 -0 -1 -0 -0 -27 -41 -48 -43 -44 -36 -43 -58 -61 -25 -18 -28 -45 -41 -39 -40 -51 -30 -36 -41 -42
-4 -0 -9 -2 -8 -0 -3 -1 -0 -0 -0 -0 -0 -20 -69 -0 -0 -33 -22 -25 -27 -0 -0 -0 -28 -53 -3 -22 -1 -0 -0 -9 -11 -0 -4 -9 -0 -1 -3 -12 -53 -48 -50 -40 -51 -59 -63 -63 -19
-8 -6 -24 -25 -16 -16 -12 -16 -4 -2 -0 -0 -0 -35 -60 -78 -75 -92 -10 -2 -1 -0 -0 -7 -9 -20 -0 -15 -0 -2 -13 -5 -1 -0 -0 -6 -1 -9 -65 -10 -17 -9 -73 -29 -34 -17 -21 -2 -2
-83 -0 -14 -20 -0 -15 -6 -8 -0 -2 -0 -0 -0 -27 -74 -149 -68 -0 -31 -2 -4 -2 -0 -2 -8 -27 -21 -25 -0 -0 -4 -0 -16 -0 -0 -7 -34 -1 -1 -0 -0 -18 -4 -1 -4 -6 -2 -5 -1
-1 -0 -0 -16 -3 -35 -38 -21 -2 -0 -0 -0 -0 -24 -53 -0 -0 -27 -52 -2 -7 -0 -1 -29 -89 -37 -1 -1 -2 -5 -1 -6 -2 -12 -5 -0 -0 -0 -0 -0 -0 -12 -17 -0 -1 -8 -0 -1 -1
-2 -10 -1 -0 -0 -0 -5 -4 -4 -18 -0 -0 -0 -10 -23 -54 -0 -34 -120 -9 -4 -0 -18 -61 -72 -6 -0 -0 -0 -0 -1 -3 -0 -12 -0 -0 -0 -1 -0 -1 -1 -1 -0 -0 -0 -1 -0 -2 -1
-3 -10 -0 -0 -0 -0 -0 -0 -0 -42 -10 -2 -3 -1 -6 -14 -44 -7 -23 -22 -4 -0 -43 -0 -50 -0 -0 -0 -0 -0 -0 -0 -1 -0 -3 -0 -0 -1 -5 -19 -0 -0 -0 -1 -2 -0 -0 -2 -1
-0 -1 -0 -3 -0 -1 -8 -45 -49 -68 -49 -40 -14 -0 -3 -7 -0 -0 -0 -9 -25 -5 -62 -24 -0 -0 -0 -0 -0 -0 -0 -0 -1 -0 -0 -0 -0 -1 -0 -12 -0 -0 -28 -3 -1 -0 -0 -1 -2
-0 -0 -58 -36 -2 -1 -1 -34 -70 -79 -61 -35 -43 -0 -0 -1 -1 -0 -0 -0 -36 -1 -53 -13 -1 -0 -0 -1 -0 -0 -0 -0 -0 -0 -0 -4 -0 -1 -2 -4 -0 -0 -1 -0 -0 -0 -0 -0 -2
-0 -1 -38 -0 -0 -3 -0 -0 -36 -73 -82 -50 -30 -6 -0 -0 -5 -2 -0 -0 -3 -3 -12 -3 -0 -0 -0 -0 -0 -0 -0 -0 -1 -0 -0 -3 -0 -0 -7 -19 -0 -9 -13 -0 -0 -0 -0 -7 -0
-50 -3 -0 -0 -1 -6 -0 -0 -8 -66 -63 -84 -40 -25 -2 -0 -0 -2 -0 -0 -18 -2 -5 -9 -0 -0 -0 -0 -0 -0 -0 -0 -1 -0 -10 -2 -1 -0 -1 -0 -0 -1 -0 -0 -0 -0 -22 -0 -0
-32 -2 -2 -1 -5 -7 -3 -0 -2 -23 -41 -37 -86 -37 -14 -5 -4 -2 -0 -0 -16 -17 -2 -38 -0 -0 -0 -0 -0 -1 -1 -1 -0 -4 -15 -5 -10 -11 -0 -0 -0 -4 -0 -1 -0 -0 -0 -5 -8
-0 -0 -0 -1 -9 -0 -1 -7 -8 -2 -26 -30 -47 -69 -41 -26 -28 -6 -0 -0 -27 -30 -23 -41 -0 -0 -0 -0 -0 -1 -4 -12 -26 -43 -11 -1 -34 -20 -1 -0 -0 -0 -2 -0 -0 -0 -0 -0 -10
-0 -0 -1 -0 -1 -0 -8 -0 -3 -0 -17 -32 -56 -73 -75 -49 -14 -16 -6 -9 -42 -57 -104 -37 -1 -0 -8 -0 -0 -0 -0 -8 -47 -41 -9 -58 -37 -20 -11 -1 -0 -0 -2 -0 -0 -0 -0 -5 -27
-0 -1 -0 -0 -0 -0 -3 -0 -0 -0 -0 -19 -60 -97 -121 -129 -47 -33 -41 -31 -21 -53 -109 -132 -0 -0 -2 -0 -1 -22 -13 -18 -40 -47 -2 -12 -8 -5 -25 -19 -2 -1 -0 -0 -0 -0 -0 -1 -70
-0 -0 -1 -0 -0 -0 -0 -0 -0 -0 -2 -1 -34 -90 -152 -190 -126 -67 -49 -45 -47 -50 -72 -213 -1 -0 -4 -43 -80 -35 -21 -4 -35 -43 -48 -35 -28 -19 -19 -10 -10 -3 -0 -0 -1 -0 -15 -37 -133
-0 -0 -0 -0 -0 -2 -1 -0 -2 -302 -0 -1 -8 -53 -117 -226 -209 -129 -84 -98 -96 -86 -102 -175 -26 -4 -55 -119 -143 -115 -65 -33 -20 -14 -16 -20 -22 -28 -3 -2 -1 -0 -0 -0 -2 -33 -67 -150 -268
-0 -0 -0 -0 -0 -0 -8 -0 -0 -157 -0 -3 -0 -34 -75 -190 -276 -170 -95 -102 -130 -162 -171 -211 -43 -7 -44 -61 -27 -25 -27 -126 -97 -22 -51 -58 -46 -36 -12 -8 -6 -2 -3 -1 -17 -67 -130 -219 -386
-0 -0 -0 -0 -3 -0 -129 -4 -3 -1 -31 -51 -48 -10 -57 -136 -37 -252 -170 -121 -126 -158 -176 -155 -55 -26 -62 -76 -49 -17 -44 -33 -75 -0 -4 -55 -10 -63 -47 -16 -8 -6 -0 -13 -54 -102 -178 -372 -0
-0 -0 -0 -1 -0 -19 -28 -25 -4 -2 -14 -2 -22 -7 -53 -126 -266 -326 -252 -196 -170 -164 -134 -118 -111 -103 -91 -100 -105 -114 -105 -69 -51 -58 -49 -32 -52 -60 -22 -8 -10 -13 -12 -61 -82 -128 -291 -0 -0
-0 -0 -0 -0 -0 -12 -17 -4 -0 -0 -1 -35 -12 -15 -60 -126 -274 -352 -283 -238 -222 -204 -174 -147 -125 -126 -99 -49 -69 -61 -125 -103 -102 -104 -90 -77 -60 -48 -24 -9 -8 -8 -45 -103 -135 -236 -125 -0 -0
-0 -0 -0 -0 -0 -0 -8 -3 -12 -3 -42 -22 -16 -27 -66 -143 -226 -319 -304 -278 -271 -224 -201 -164 -119 -125 -77 -48 -34 -115 -154 -119 -119 -97 -104 -100 -72 -40 -23 -9 -17 -47 -74 -166 -184 -347 -0 -0 -0
Wind_Speed
13 14 12 5 3 5 10 9 15 16 11 7 2 3 13 11 7 9 16 14 14 15 12 11 8 10 10 11 11 10 9 8 9 8 9 10 10 11 10 12 11 11 11 9 10 9 9 9 8
16 10 6 7 3 1 8 15 12 9 15 12 11 11 4 12 4 17 15 15 9 10 13 12 9 10 9 10 10 9 10 8 9 10 10 10 11 11 10 10 11 10 10 8 8 7 6 6 5
16 12 8 5 1 6 9 19 12 18 20 11 6 6 8 4 12 9 19 10 13 10 13 11 9 10 11 11 10 10 10 10 11 10 9 10 10 9 8 10 9 8 7 6 5 5 3 3 3
8 9 6 1 14 20 12 15 17 17 12 6 13 13 8 10 4 7 16 15 12 11 14 10 10 11 10 10 8 10 10 10 10 10 10 10 10 8 7 7 7 6 5 4 3 2 2 2 1
12 1 4 6 11 14 12 18 12 8 14 9 11 8 7 7 6 12 11 14 15 12 15 12 10 12 9 9 8 9 9 8 9 10 9 8 7 5 5 5 4 3 3 0 2 2 4 4 4
10 5 2 3 14 11 9 10 6 11 15 19 12 12 6 6 15 14 12 11 13 15 10 13 11 10 9 8 8 9 9 10 9 8 7 6 5 3 3 2 1 0 1 2 3 4 5 6 6
17 3 2 15 8 13 11 8 9 7 9 9 23 11 8 13 10 10 4 4 8 14 7 11 11 10 8 7 9 9 9 8 7 6 4 3 5 5 4 4 3 2 3 3 3 5 5 6 6
10 9 8 8 11 6 12 12 18 5 9 12 11 9 13 16 18 19 11 8 4 12 6 8 11 11 12 11 7 8 7 6 6 5 4 8 9 10 10 7 4 3 3 3 4 5 7 8 10
16 9 2 3 20 7 11 13 7 9 11 6 5 7 23 24 19 17 13 14 6 6 13 9 11 6 4 11 8 9 8 9 9 8 10 8 7 9 10 9 3 1 3 3 4 4 7 11 13
13 7 8 5 7 11 7 11 10 11 10 8 10 22 26 26 21 17 12 15 13 13 11 14 11 10 8 9 6 5 7 4 2 6 5 2 5 4 7 3 7 7 8 7 8 11 13 13 9
6 6 4 7 12 6 13 9 7 13 12 12 17 23 25 22 19 16 18 17 12 12 9 10 9 9 9 8 6 4 1 3 6 5 5 4 4 5 4 2 3 1 9 6 8 7 5 9 6
12 6 8 14 7 6 7 11 7 8 14 13 17 22 21 23 18 19 16 15 14 12 11 10 9 5 8 5 6 4 3 4 1 5 4 3 2 5 5 6 4 2 4 4 3 3 4 5 1
6 7 11 11 3 14 6 7 9 11 7 13 16 22 23 22 18 15 11 12 13 11 11 11 10 7 6 4 5 3 2 0 3 4 6 7 6 4 3 2 3 2 3 5 2 2 4 6 2
2 6 8 6 9 6 5 10 10 10 9 16 16 21 22 22 20 16 14 9 9 12 11 12 11 9 8 3 4 3 2 5 1 6 7 7 3 5 6 3 5 7 7 6 7 3 4 6 5
5 10 8 9 10 12 8 9 8 11 12 15 16 19 20 19 23 19 18 16 13 12 12 13 12 11 8 7 6 4 6 3 3 6 5 5 7 2 7 3 8 5 3 3 3 4 2 4 4
15 17 16 12 12 8 10 9 14 13 15 15 15 18 19 16 19 16 18 18 13 10 12 13 11 11 9 7 4 4 5 2 2 3 8 4 5 4 8 3 7 7 7 6 5 6 6 5 7
15 15 23 22 12 11 7 16 16 13 13 17 16 18 19 16 16 15 17 15 16 14 13 13 9 11 9 8 7 4 5 5 3 1 5 3 5 6 8 5 7 6 3 6 7 7 6 6 5
17 13 16 5 14 6 9 9 17 15 15 16 18 18 20 20 19 14 19 17 18 14 13 13 10 9 9 8 4 6 6 4 3 2 7 3 4 5 7 2 3 5 4 6 7 6 5 6 7
12 18 15 11 12 4 10 6 20 18 17 18 18 20 19 18 19 16 17 16 17 15 15 14 12 10 8 6 7 6 7 5 3 2 3 2 3 5 4 7 4 5 3 5 6 8 6 7 8
29 27 8 6 8 5 14 12 14 22 20 21 20 21 23 22 18 16 17 18 18 17 16 15 14 11 9 7 5 3 3 2 2 3 2 0 1 3 5 5 6 6 6 3 6 6 6 2 3
19 16 11 12 5 11 14 14 15 23 20 19 21 23 22 23 23 20 18 20 19 18 18 16 14 13 11 9 6 4 2 3 5 5 7 5 1 3 3 4 5 5 7 7 5 7 8 8 4
23 17 14 10 9 12 4 13 17 19 20 21 21 22 23 24 24 24 23 21 21 19 18 17 15 13 12 11 7 8 6 6 3 2 5 1 2 4 2 3 3 3 7 4 6 7 6 5 8
20 20 16 13 15 16 20 9 7 19 20 22 21 22 22 23 23 26 25 24 22 20 18 18 15 14 12 12 10 8 8 5 4 5 5 3 3 4 4 3 4 3 6 4 4 5 6 7 6
21 21 10 12 14 15 18 14 13 19 19 21 22 22 22 23 23 22 23 22 21 19 19 18 16 13 14 12 13 10 7 8 5 5 4 5 3 4 5 2 2 3 4 4 3 3 5 6 5
26 22 11 13 13 14 10 16 3 26 7 19 24 24 23 22 22 23 23 21 21 22 20 18 17 16 16 16 14 13 12 9 8 6 6 5 4 4 6 1 4 3 3 2 2 2 3 5 6
24 25 13 19 16 14 14 9 7 36 7 13 20 23 24 23 22 23 25 23 22 22 22 20 19 16 17 17 15 12 12 9 9 8 8 6 5 4 5 3 3 2 1 3 2 3 3 4 4
26 27 22 25 8 11 4 20 14 10 13 5 13 25 24 23 23 23 24 23 23 22 22 21 18 17 17 17 13 13 12 12 10 9 8 8 6 7 5 5 2 2 3 3 2 3 1 3 3
31 20 23 18 18 2 12 16 12 16 10 10 10 23 24 23 22 22 21 22 21 21 21 21 20 18 17 17 14 13 13 13 11 9 9 8 7 4 5 5 5 5 5 4 4 4 4 1 3
22 24 22 22 19 8 13 24 17 13 9 2 12 20 23 22 22 21 21 21 21 21 21 20 19 19 17 15 14 13 14 13 13 12 11 11 9 8 7 4 6 5 6 5 2 1 2 2 2
27 28 26 17 23 14 7 12 20 13 9 6 14 19 21 21 21 20 20 21 20 20 20 20 19 18 16 14 13 14 14 14 14 12 12 11 10 9 9 5 7 7 6 5 4 4 2 2 1
Wind_Direction
174 191 218 225 231 203 103 86 115 139 110 105 186 120 92 37 7 85 141 120 129 118 121 125 109 102 100 106 99 96 100 91 99 92 105 95 89 89 84 92 92 89 85 87 88 93 98 97 100
193 197 237 257 113 329 81 126 112 114 118 140 98 99 67 72 100 128 129 101 150 118 120 113 111 109 107 100 99 95 81 93 96 92 96 98 96 91 91 83 84 76 81 82 85 86 83 85 88
275 231 261 105 150 17 88 121 143 128 137 128 110 108 37 116 95 115 107 133 141 143 117 107 115 103 99 98 99 93 92 92 88 91 93 88 86 87 87 91 91 86 81 80 79 79 71 68 56
217 218 242 16 68 83 118 111 136 125 117 99 108 87 91 66 48 114 135 162 130 94 101 115 107 106 98 105 105 104 98 99 100 99 101 101 89 96 91 90 87 83 75 61 69 40 29 25 11
239 140 291 109 99 80 100 114 129 110 127 140 105 102 92 85 125 130 172 136 137 168 109 116 102 102 105 101 104 106 103 94 104 101 99 100 105 100 97 93 100 109 107 89 332 333 330 332 324
275 31 262 184 94 104 98 110 94 125 139 127 110 117 103 143 159 168 139 152 141 102 129 126 111 113 115 109 111 112 101 96 97 99 101 102 110 146 135 115 131 265 307 316 312 313 317 314 310
258 335 275 146 100 123 109 128 108 117 144 133 152 110 130 169 168 153 122 48 115 124 160 127 133 123 120 123 110 99 99 102 105 99 113 171 190 196 193 186 215 287 297 295 297 298 292 284 292
289 306 352 89 115 284 116 113 127 59 117 123 140 140 167 148 189 139 169 133 97 141 114 148 145 158 150 138 114 112 120 122 124 149 207 222 223 215 202 187 204 289 319 290 281 286 286 280 273
265 300 326 358 91 266 122 113 69 120 125 146 99 178 143 157 158 159 177 145 179 207 157 118 142 163 125 126 131 150 172 181 183 186 222 242 231 217 142 92 120 228 289 278 241 257 265 254 249
254 299 44 3 81 102 120 109 122 145 125 135 119 107 140 160 155 152 172 144 202 154 168 164 134 140 178 123 165 149 152 187 164 48 329 300 29 34 339 73 190 197 219 226 225 216 237 260 248
242 24 37 87 43 109 116 115 148 132 174 149 133 143 149 144 171 154 188 163 162 162 170 126 134 176 168 113 171 146 98 143 128 82 359 59 335 110 213 9 172 140 224 167 202 242 208 35 343
270 85 68 75 104 107 143 108 146 110 69 137 139 153 156 156 182 170 176 169 155 165 143 158 131 155 97 157 201 139 128 138 122 90 2 320 207 32 2 27 342 299 28 59 350 333 359 317 63
222 85 102 105 87 73 148 124 94 97 118 129 145 158 163 169 167 174 157 183 162 159 138 131 137 141 135 239 89 9 149 310 125 130 67 28 32 347 46 22 45 344 345 41 89 271 31 308 267
301 153 107 153 117 155 130 120 188 132 158 138 162 169 172 170 162 179 190 160 186 166 159 137 148 154 148 127 164 186 5 155 117 73 46 59 339 342 343 27 33 50 40 31 25 343 334 292 353
122 179 183 174 155 156 243 160 119 142 155 147 171 174 180 168 174 173 186 169 194 164 165 147 160 164 146 130 169 228 175 154 93 100 86 56 12 353 304 32 39 355 87 68 80 313 330 1 342
252 226 198 154 163 130 213 237 125 145 152 161 177 175 178 173 170 188 166 180 155 205 162 162 178 152 164 142 170 210 114 130 121 88 113 43 37 21 304 50 44 3 316 357 31 2 352 35 342
209 238 115 255 170 127 241 203 130 155 163 162 178 185 176 192 176 187 162 184 166 193 164 177 179 163 155 156 179 197 112 253 111 237 91 51 66 25 319 31 58 326 358 49 8 355 11 343 345
250 214 226 189 163 189 208 156 146 167 170 175 178 197 186 183 183 184 179 177 183 164 183 187 177 168 165 154 202 195 167 203 197 142 65 36 51 28 329 110 61 297 350 26 1 332 333 298 19
15 278 287 177 149 200 242 258 157 170 185 179 187 189 197 199 182 184 197 185 178 181 177 187 184 176 179 189 198 196 205 196 190 162 115 232 39 31 349 354 55 336 12 12 347 342 17 342 17
159 254 273 277 130 225 267 219 181 170 194 183 187 191 195 196 188 196 190 192 190 183 183 185 190 179 202 196 225 235 237 164 356 31 70 225 13 351 329 341 332 21 346 27 2 10 348 359 62
241 251 232 235 152 229 255 261 243 166 188 199 186 185 197 200 185 190 194 195 193 188 188 186 193 186 198 222 189 170 232 258 215 183 201 149 177 332 360 355 0 340 282 28 333 24 5 340 355
241 222 265 287 267 269 183 267 235 172 187 196 191 188 190 198 186 189 194 195 195 196 189 190 191 197 196 204 201 202 222 230 152 180 89 228 235 322 304 353 349 343 318 13 350 35 340 345 348
238 246 222 236 256 254 206 238 249 167 187 193 198 192 193 192 195 188 193 191 198 194 192 193 187 196 209 193 234 194 233 220 216 222 122 225 235 230 288 329 321 330 304 8 20 12 359 342 338
229 241 229 240 248 251 248 258 239 181 183 193 191 192 193 188 195 196 187 188 196 197 194 190 186 196 200 205 200 231 224 234 264 192 239 244 246 203 149 308 288 309 326 19 43 11 40 2 8
228 225 217 226 229 245 274 211 187 341 146 177 182 190 188 187 189 190 185 189 192 197 195 192 186 194 204 206 211 205 217 225 237 243 233 274 285 254 124 100 248 278 53 42 49 46 33 28 13
221 227 222 218 230 231 169 239 239 196 139 151 173 180 182 188 186 187 185 187 189 193 193 195 186 194 203 207 207 206 206 217 219 226 254 246 256 261 115 237 252 105 56 127 160 170 4 29 30
214 225 229 249 275 265 73 265 212 165 199 172 185 167 180 185 182 185 187 185 187 191 192 194 189 193 202 205 202 201 205 222 222 240 194 223 236 260 219 235 213 157 145 183 178 59 19 341 355
236 203 224 240 244 227 291 295 207 189 205 173 212 167 173 179 181 181 186 183 187 189 189 194 193 192 199 202 199 199 203 208 222 235 228 247 263 250 272 260 130 209 147 179 240 183 121 35 5
215 224 217 237 239 183 222 241 174 166 184 78 186 164 168 177 181 178 184 180 188 186 189 192 194 191 197 200 195 198 201 204 211 220 226 230 232 232 229 229 158 175 180 187 199 61 130 109 100
216 218 227 224 236 251 275 294 225 143 139 166 174 156 167 178 180 175 182 177 184 188 189 190 193 193 192 193 197 193 201 205 208 214 223 223 221 218 220 170 196 187 188 187 206 231 92 183 174